Starlink 31045

operational
NORAD ID: 58541 Int'l Des: 2023-192 Owner: SPXS Country: US Constellation: starlink
LEOCIRCULAR

Starlink 31045について

説明を読み込み中...

リアルタイム位置

3D地球を読み込み中...

次回通過

高度履歴

Altitude vs Time

uPlot chart will show altitude changes over time

軌道要素

1 58541U 23192L 25351.19671058 -.00000820 00000-0 -15558-4 0 9993
2 58541 53.1597 162.7555 0001306 85.4870 274.6279 15.30190733112269
Epoch: Dec 17, 2025 • Age: 8 hours

現在のステータス

高度 475.3 km
速度 7.63 km/s
衛星直下点 19.63°N, 99.76°W
打ち上げ日 Dec 8, 2023
運用期間 2 years
タイプ internet

技術仕様

分類 Payload
質量 730.00 kg
乾燥質量 700.00 kg
総質量 730.00 kg
長さ 0.30 m
直径 4.10 m
スパン 29.00 m
形状 Box + pan
製造者 SPXS
バスタイプ Starlink V2M
フェーズステータス In Orbit
所有者/国 SPXS/US

大規模コンステレーション

Loading constellations...